Showing default

OPS 3367 A, 734

Orbit data source: Space-Track

OPS 3367 A, 734 is an American payload satellite in SSO that was launched on Sun, 19 Jan 1964 UTC via a THOR SLV-2 AGENA D launch vehicle from the Air Force Western Test Range (AFWTR). Payload-class satellites include a variety of spacecraft equipped with specific instruments for various scientific and technological missions. These include communications satellites like Starlink; space stations such as the ISS; scientific satellites like the Hubble; Earth observation satellites from companies like Planet Labs, Umbra, and HawkEye 360; GPS; miniature CubeSats for education and research; and military/defense satellites.

Loading next visibility...
Identifier
734, 1964-002B
Orbit
SSO
Country
Flag of USUS
Related business
Manufacturer
RCA/East Windsor
Mission
Spacecraft
Bus & Motor
P35, Unknown motor
Mass
50 kg wet, 50 kg dry
Launch date (UTC)
1964-01-19 (62 years ago)
Launch vehicle
THOR SLV-2 AGENA D
Launch site
Air Force Western Test Range (AFWTR)
Object type
Payload
Rocket body
Debris
Shape & HBR
Unknown
Radar Cross Section
Medium (>0.1 m² and <1 m²)

Expand to show TLE details & history
Last TLE update: 14 hours ago

TLE from 14 hours ago
0 OPS 3367 A
1 00734U 64002B   26034.28996756  .00000142  00000-0  73547-4 0  9990
2 00734  98.9749 320.3723 0013808 212.0692 147.9650 14.29659491229638
Epoch: 2026-02-03T06:57Z
TLE epoch observation values (Epoch: 2026-02-03T06:57:33.197Z)
Latitude
-0.00001°
Longitude
82.51095°
Altitude
804.188 km
Speed
7.447 km/s
True Right ascension
21h 21m 29s
True Declination
0° 00' 00"
Sunlit
Object was in daylight at epoch
Visualization orbit readout
Latitude
Unknown
Longitude
Unknown
Altitude
Unknown
Speed
Unknown
Apparent Right ascension
Unknown
Apparent Declination
Unknown
Sunlit
N/A
Visualization observer readout
Local Sidereal Time
22:51:11
Azimuth
Unknown
Elevation
Unknown
Doppler factor
Unknown
Orbital elements
Apogee altitude
799.926 km
Perigee altitude
780.13 km
Semi-major axis
7,168.165 km
Eccentricity
0.00138
Inclination
98.9749°
RAAN
320.3723°
Arg. of periapsis
212.0692°
True anomaly
148.04881°
Mean anomaly
147.965°
Eccentric anomaly
148.00692°
Mean motion
3.57628 °/min
Orbital period
100.66 mins
BSTAR
0.000073547
Loading maneuver chart data...
Computing Atmospheric mass density...
Loading historical data...
Loading historical data...
Loading historical data...
Loading historical data...
Loading historical data...
Loading historical data...
Loading historical data...
Other satellites on launch #2 in the year 1964 (1964-01-19 UTC)

Documentation

Showing up to 5 results
|